Location: Unspecified
(0.0000°N, 0.0000°E)
Time: 12:31:07
(UTC+00:00)

N. Korean satellite - Pass Details

Date: 25 April 2018
Orbit: 459 x 511 km, 97.2° (Epoch: 17 July)

Event Time Altitude Azimuth Distance (km) Brightness Sun altitude
Rises 05:27:33 0° 41° (NE) 2,468 11.2 -7.4°
Reaches altitude 10° 05:30:19 10° 67° (ENE) 1,603 10.9 -6.7°
Maximum altitude 05:32:14 14° 101° (ESE) 1,361 10.0 -6.3°
Drops below altitude 10° 05:34:11 10° 136° (SE) 1,617 9.7 -5.8°
Sets 05:36:59 0° 161° (SSE) 2,506 10.3 -5.1°
